| time (UTC) | temp C | wind direction | speed KPH | gust KPH | rain 1hr cm | rain 24hr cm | rain mn cm | humidity % | barometer mb |
| 20260506015426 | 16 | 347 | 4.8 | 8.0 | 0.00 | 0.00 | 0.00 | 61 | 1010.8 |
| 20260506013524 | 17 | 338 | 3.2 | 8.0 | 0.00 | 0.00 | 0.00 | 62 | 1010.5 |
| 20260506012526 | 17 | 7 | 4.8 | 16.1 | 0.00 | 0.00 | 0.00 | 62 | 1010.1 |
| 20260506011624 | 17 | 345 | 4.8 | 6.4 | 0.00 | 0.00 | 0.00 | 63 | 1009.6 |
| 20260506010627 | 18 | 336 | 4.8 | 8.0 | 0.00 | 0.00 | 0.00 | 62 | 1009.6 |
| 20260506005625 | 18 | 5 | 4.8 | 9.7 | 0.00 | 0.00 | 0.00 | 63 | 1009.4 |
| 20260506004725 | 19 | 340 | 4.8 | 11.3 | 0.00 | 0.00 | 0.00 | 60 | 1009.1 |
| 20260506003725 | 20 | 348 | 3.2 | 8.0 | 0.00 | 0.00 | 0.00 | 60 | 1008.8 |
| 20260506002743 | 20 | 311 | 1.6 | 6.4 | 0.00 | 0.00 | 0.00 | 60 | 1008.9 |
| 20260506001726 | 20 | 318 | 3.2 | 8.0 | 0.00 | 0.00 | 0.00 | 61 | 1008.9 |
| 20260506000740 | 20 | 326 | 3.2 | 9.7 | 0.00 | 0.00 | 0.00 | 60 | 1009.1 |
| 20260505234726 | 21 | 360 | 4.8 | 9.7 | 0.00 | 0.00 | 0.00 | 59 | 1008.5 |
| 20260505233741 | 21 | 354 | 6.4 | 11.3 | 0.00 | 0.00 | 0.00 | 58 | 1008.8 |
| 20260505231825 | 23 | 295 | 6.4 | 16.1 | 0.00 | 0.00 | 0.00 | 56 | 1008.5 |
| 20260505230825 | 23 | 332 | 4.8 | 8.0 | 0.00 | 0.00 | 0.00 | 59 | 1008.2 |
| 20260505225827 | 23 | 322 | 4.8 | 11.3 | 0.00 | 0.00 | 0.00 | 58 | 1007.8 |
| 20260505224825 | 24 | 299 | 6.4 | 12.9 | 0.00 | 0.00 | 0.00 | 56 | 1008.2 |
| 20260505222824 | 25 | 312 | 4.8 | 11.3 | 0.00 | 0.00 | 0.00 | 55 | 1007.4 |
| 20260505220926 | 26 | 298 | 6.4 | 12.9 | 0.00 | 0.00 | 0.00 | 47 | 1006.8 |
| 20260505215925 | 26 | 307 | 4.8 | 8.0 | 0.00 | 0.00 | 0.00 | 46 | 1006.9 |
| 20260505214025 | 27 | 308 | 3.2 | 8.0 | 0.00 | 0.00 | 0.00 | 43 | 1006.8 |
| 20260505213025 | 27 | 313 | 1.6 | 4.8 | 0.00 | 0.00 | 0.00 | 42 | 1007.0 |
| 20260505212025 | 28 | 286 | 4.8 | 6.4 | 0.00 | 0.00 | 0.00 | 40 | 1007.2 |
| 20260505211024 | 28 | 306 | 6.4 | 14.5 | 0.00 | 0.00 | 0.00 | 41 | 1007.0 |
| 20260505210025 | 30 | 286 | 8.0 | 12.9 | 0.00 | 0.00 | 0.00 | 47 | 1007.0 |
| 20260505205025 | 30 | 280 | 3.2 | 6.4 | 0.00 | 0.00 | 0.00 | 47 | 1007.0 |
| 20260505204025 | 30 | 296 | 3.2 | 9.7 | 0.00 | 0.00 | 0.00 | 49 | 1007.0 |
| 20260505203025 | 30 | 319 | 4.8 | 14.5 | 0.00 | 0.00 | 0.00 | 53 | 1006.9 |
| 20260505202026 | 30 | 223 | 3.2 | 4.8 | 0.00 | 0.00 | 0.00 | 54 | 1006.9 |
| 20260505201026 | 29 | 166 | 3.2 | 6.4 | 0.00 | 0.00 | 0.00 | 54 | 1006.9 |
| 20260505200042 | 28 | 96 | 1.6 | 6.4 | 0.00 | 0.00 | 0.00 | 53 | 1006.9 |
| 20260505195123 | 28 | 143 | 3.2 | 8.0 | 0.00 | 0.00 | 0.00 | 53 | 1007.2 |
| 20260505194126 | 28 | 194 | 1.6 | 6.4 | 0.00 | 0.00 | 0.00 | 57 | 1007.2 |
| 20260505193224 | 28 | 195 | 0.0 | 1.6 | 0.00 | 0.00 | 0.00 | 54 | 1007.2 |
| 20260505192225 | 27 | 308 | 1.6 | 8.0 | 0.00 | 0.00 | 0.00 | 53 | 1007.1 |
| 20260505191225 | 28 | 71 | 1.6 | 6.4 | 0.00 | 0.00 | 0.00 | 51 | 1007.0 |
| 20260505190225 | 28 | 150 | 3.2 | 8.0 | 0.00 | 0.00 | 0.00 | 51 | 1006.8 |
| 20260505185227 | 28 | 283 | 3.2 | 8.0 | 0.00 | 0.00 | 0.00 | 55 | 1006.8 |
| 20260505184323 | 27 | 50 | 1.6 | 6.4 | 0.00 | 0.00 | 0.00 | 53 | 1006.7 |
| 20260505183343 | 27 | 140 | 4.8 | 11.3 | 0.00 | 0.00 | 0.00 | 54 | 1006.7 |
| 20260505182425 | 27 | 148 | 3.2 | 8.0 | 0.00 | 0.00 | 0.00 | 54 | 1007.0 |
| 20260505181524 | 27 | 129 | 4.8 | 9.7 | 0.00 | 0.00 | 0.00 | 57 | 1007.1 |
| 20260505180526 | 26 | 318 | 3.2 | 9.7 | 0.00 | 0.00 | 0.00 | 59 | 1007.0 |
| 20260505175525 | 26 | 155 | 4.8 | 11.3 | 0.00 | 0.00 | 0.00 | 59 | 1007.1 |
| 20260505174526 | 26 | 166 | 1.6 | 6.4 | 0.00 | 0.00 | 0.00 | 62 | 1007.1 |
| 20260505173524 | 26 | 179 | 0.0 | 3.2 | 0.00 | 0.00 | 0.00 | 60 | 1006.8 |
| 20260505172623 | 25 | 153 | 3.2 | 9.7 | 0.00 | 0.00 | 0.00 | 61 | 1006.7 |
| 20260505171625 | 25 | 145 | 3.2 | 4.8 | 0.00 | 0.00 | 0.00 | 61 | 1006.8 |
| 20260505170625 | 25 | 130 | 6.4 | 11.3 | 0.00 | 0.00 | 0.00 | 61 | 1006.6 |
| 20260505165724 | 25 | 143 | 6.4 | 16.1 | 0.00 | 0.00 | 0.00 | 62 | 1006.8 |
| 20260505164725 | 25 | 161 | 1.6 | 6.4 | 0.00 | 0.00 | 0.00 | 62 | 1006.8 |
| 20260505163725 | 25 | 155 | 4.8 | 11.3 | 0.00 | 0.00 | 0.00 | 63 | 1006.5 |
| 20260505161725 | 24 | 138 | 1.6 | 9.7 | 0.00 | 0.00 | 0.00 | 62 | 1006.7 |
| 20260505151825 | 24 | 141 | 6.4 | 14.5 | 0.00 | 0.00 | 0.00 | 62 | 1006.7 |
| 20260505150923 | 24 | 124 | 4.8 | 12.9 | 0.00 | 0.00 | 0.00 | 64 | 1006.7 |
| 20260505130124 | 22 | 137 | 4.8 | 9.7 | 0.00 | 0.00 | 0.00 | 67 | 1006.1 |
| 20260505124125 | 21 | 136 | 0.0 | 12.9 | 0.00 | 0.00 | 0.00 | 67 | 1006.0 |
| 20260505123223 | 21 | 134 | 6.4 | 9.7 | 0.00 | 0.00 | 0.00 | 68 | 1005.9 |
| 20260505121223 | 21 | 147 | 3.2 | 8.0 | 0.00 | 0.00 | 0.00 | 67 | 1005.7 |
| 20260505121123 | 21 | 143 | 6.4 | 9.7 | 0.00 | 0.00 | 0.00 | 67 | 1005.6 |
| 20260505120125 | 21 | 132 | 4.8 | 11.3 | 0.00 | 0.00 | 0.00 | 67 | 1005.5 |
| 20260505113225 | 21 | 130 | 4.8 | 9.7 | 0.00 | 0.00 | 0.00 | 67 | 1005.4 |
| 20260505112224 | 22 | 103 | 0.0 | 4.8 | 0.00 | 0.00 | 0.00 | 67 | 1005.5 |
| 20260505111224 | 22 | 140 | 3.2 | 11.3 | 0.00 | 0.00 | 0.00 | 65 | 1005.4 |
| 20260505110322 | 22 | 148 | 6.4 | 12.9 | 0.00 | 0.00 | 0.00 | 67 | 1005.3 |
| 20260505101324 | 21 | 144 | 4.8 | 9.7 | 0.00 | 0.00 | 0.00 | 67 | 1005.3 |
| 20260505094424 | 21 | 137 | 9.7 | 16.1 | 0.00 | 0.00 | 0.00 | 67 | 1005.2 |
| 20260505093424 | 22 | 142 | 3.2 | 8.0 | 0.00 | 0.00 | 0.00 | 67 | 1005.4 |
| 20260505092425 | 22 | 143 | 6.4 | 17.7 | 0.00 | 0.00 | 0.00 | 66 | 1005.5 |
| 20260505090424 | 22 | 119 | 6.4 | 9.7 | 0.00 | 0.00 | 0.00 | 65 | 1005.4 |
| 20260505085441 | 22 | 127 | 6.4 | 12.9 | 0.00 | 0.00 | 0.00 | 65 | 1005.4 |
| 20260505084425 | 22 | 124 | 3.2 | 9.7 | 0.00 | 0.00 | 0.00 | 65 | 1005.4 |
| 20260505083424 | 22 | 133 | 8.0 | 14.5 | 0.00 | 0.00 | 0.00 | 64 | 1005.3 |
| 20260505082425 | 22 | 134 | 6.4 | 9.7 | 0.00 | 0.00 | 0.00 | 64 | 1005.4 |
| 20260505081423 | 22 | 145 | 6.4 | 17.7 | 0.00 | 0.00 | 0.00 | 64 | 1005.5 |
| 20260505080423 | 22 | 136 | 4.8 | 8.0 | 0.00 | 0.00 | 0.00 | 63 | 1005.8 |
| 20260505075523 | 22 | 142 | 8.0 | 17.7 | 0.00 | 0.00 | 0.00 | 63 | 1005.8 |
| 20260505074622 | 22 | 138 | 8.0 | 14.5 | 0.00 | 0.00 | 0.00 | 63 | 1006.0 |
| 20260505073624 | 22 | 133 | 11.3 | 17.7 | 0.00 | 0.00 | 0.00 | 63 | 1006.1 |
| 20260505072624 | 22 | 146 | 3.2 | 4.8 | 0.00 | 0.00 | 0.00 | 62 | 1006.3 |
| 20260505071723 | 22 | 125 | 6.4 | 19.3 | 0.00 | 0.00 | 0.00 | 61 | 1006.4 |
| 20260505070723 | 22 | 141 | 6.4 | 11.3 | 0.00 | 0.00 | 0.00 | 62 | 1006.5 |
| 20260505065723 | 22 | 133 | 6.4 | 11.3 | 0.00 | 0.00 | 0.00 | 61 | 1006.4 |
| 20260505064822 | 22 | 151 | 3.2 | 12.9 | 0.00 | 0.00 | 0.00 | 60 | 1006.6 |
| 20260505062824 | 22 | 126 | 8.0 | 24.1 | 0.00 | 0.00 | 0.00 | 59 | 1006.7 |
| 20260505061825 | 23 | 147 | 8.0 | 25.7 | 0.00 | 0.00 | 0.00 | 60 | 1006.7 |
| 20260505060922 | 23 | 146 | 6.4 | 11.3 | 0.00 | 0.00 | 0.00 | 59 | 1006.8 |
| 20260505055924 | 23 | 140 | 9.7 | 16.1 | 0.00 | 0.00 | 0.00 | 60 | 1006.8 |
| 20260505054923 | 23 | 148 | 6.4 | 14.5 | 0.00 | 0.00 | 0.00 | 59 | 1006.8 |
| 20260505054824 | 23 | 134 | 4.8 | 11.3 | 0.00 | 0.00 | 0.00 | 59 | 1006.8 |
| 20260505053922 | 23 | 141 | 4.8 | 8.0 | 0.00 | 0.00 | 0.00 | 58 | 1007.0 |
| 20260505052925 | 23 | 132 | 3.2 | 8.0 | 0.00 | 0.00 | 0.00 | 59 | 1007.0 |
| 20260505051022 | 22 | 132 | 6.4 | 16.1 | 0.00 | 0.00 | 0.00 | 60 | 1007.4 |
| 20260505041128 | 22 | 137 | 6.4 | 11.3 | 0.00 | 0.00 | 0.00 | 58 | 1007.7 |
| 20260505040128 | 22 | 142 | 6.4 | 11.3 | 0.00 | 0.00 | 0.00 | 58 | 1007.8 |
| 20260505035228 | 22 | 136 | 4.8 | 8.0 | 0.00 | 0.00 | 0.00 | 59 | 1007.8 |
| 20260505034229 | 23 | 142 | 8.0 | 16.1 | 0.00 | 0.00 | 0.00 | 58 | 1007.8 |
| 20260505033229 | 23 | 141 | 12.9 | 24.1 | 0.00 | 0.00 | 0.00 | 57 | 1008.1 |
| 20260505032229 | 23 | 137 | 6.4 | 11.3 | 0.00 | 0.00 | 0.00 | 56 | 1008.2 |
| 20260505031229 | 23 | 144 | 6.4 | 11.3 | 0.00 | 0.00 | 0.00 | 57 | 1008.1 |
| 20260505030229 | 23 | 136 | 4.8 | 12.9 | 0.00 | 0.00 | 0.00 | 57 | 1007.9 |
| 20260505025245 | 23 | 136 | 6.4 | 11.3 | 0.00 | 0.00 | 0.00 | 57 | 1008.1 |
| 20260505024329 | 23 | 133 | 6.4 | 12.9 | 0.00 | 0.00 | 0.00 | 55 | 1008.1 |
| 20260505023328 | 23 | 137 | 4.8 | 6.4 | 0.00 | 0.00 | 0.00 | 55 | 1008.1 |
| 20260505022329 | 23 | 133 | 6.4 | 12.9 | 0.00 | 0.00 | 0.00 | 54 | 1008.1 |
| 20260505021328 | 23 | 136 | 6.4 | 9.7 | 0.00 | 0.00 | 0.00 | 55 | 1008.0 |
| 20260505020428 | 23 | 135 | 4.8 | 9.7 | 0.00 | 0.00 | 0.00 | 54 | 1007.9 |